Time,TemperatureF,DewpointF,PressureIn,WindDirection,WindDirectionDegrees,WindSpeedMPH,WindSpeedGustMPH,Humidity,HourlyPrecipIn,Conditions,Clouds,dailyrainin,SoftwareType,DateUTC
2013-03-19 00:01:00,42.3,42.0,30.00,SSE,165,1.0,5.0,99,0.00,,,0.00,Wunderground v.1.15,2013-03-19 04:01:00,
2013-03-19 00:05:00,42.5,42.2,29.99,SSE,165,1.0,5.0,99,0.00,,,0.00,Wunderground v.1.15,2013-03-19 04:05:00,
2013-03-19 00:10:00,42.7,42.4,29.99,SE,144,1.0,1.0,99,0.00,,,0.00,Wunderground v.1.15,2013-03-19 04:10:00,
2013-03-19 00:15:00,42.8,42.5,29.99,SE,146,1.0,5.0,99,0.00,,,0.00,Wunderground v.1.15,2013-03-19 04:15:00,
2013-03-19 00:20:00,42.8,42.5,29.99,SSE,147,0.0,5.0,99,0.00,,,0.00,Wunderground v.1.15,2013-03-19 04:20:00,
2013-03-19 00:25:00,42.7,42.4,29.98,SSE,147,0.0,5.0,99,0.00,,,0.00,Wunderground v.1.15,2013-03-19 04:25:00,
2013-03-19 00:30:00,42.7,42.4,29.99,SSE,147,0.0,5.0,99,0.00,,,0.00,Wunderground v.1.15,2013-03-19 04:30:00,
2013-03-19 00:40:00,42.5,42.2,29.99,SSE,147,0.0,5.0,99,0.00,,,0.00,Wunderground v.1.15,2013-03-19 04:40:00,
2013-03-19 00:45:00,42.5,42.0,29.99,SSE,147,0.0,5.0,98,0.00,,,0.00,Wunderground v.1.15,2013-03-19 04:45:00,
2013-03-19 00:50:00,42.5,42.2,30.00,SSE,147,0.0,5.0,99,0.00,,,0.00,Wunderground v.1.15,2013-03-19 04:50:00,
2013-03-19 00:55:00,42.2,41.7,29.99,SSE,147,0.0,5.0,98,0.00,,,0.00,Wunderground v.1.15,2013-03-19 04:55:00,
2013-03-19 01:01:00,42.4,41.9,29.99,SSE,147,0.0,5.0,98,0.00,,,0.00,Wunderground v.1.15,2013-03-19 05:01:00,
2013-03-19 01:10:00,41.9,41.4,30.00,WNW,284,0.0,5.0,98,0.00,,,0.00,Wunderground v.1.15,2013-03-19 05:10:00,
2013-03-19 01:15:00,41.5,41.0,30.00,WNW,284,1.0,5.0,98,0.00,,,0.00,Wunderground v.1.15,2013-03-19 05:15:00,
2013-03-19 01:20:00,41.1,40.6,30.00,WNW,284,0.0,5.0,98,0.00,,,0.00,Wunderground v.1.15,2013-03-19 05:20:00,
2013-03-19 01:25:00,40.7,40.2,30.00,WNW,284,0.0,5.0,98,0.00,,,0.00,Wunderground v.1.15,2013-03-19 05:25:00,
2013-03-19 01:30:00,40.5,40.0,30.00,WNW,284,0.0,5.0,98,0.00,,,0.00,Wunderground v.1.15,2013-03-19 05:30:00,
2013-03-19 01:35:00,41.4,40.9,30.00,WNW,284,0.0,5.0,98,0.00,,,0.00,Wunderground v.1.15,2013-03-19 05:35:00,
2013-03-19 01:40:00,41.8,41.3,29.99,WNW,284,0.0,5.0,98,0.00,,,0.00,Wunderground v.1.15,2013-03-19 05:40:00,
2013-03-19 01:45:00,41.6,41.3,30.00,WNW,284,0.0,5.0,99,0.00,,,0.00,Wunderground v.1.15,2013-03-19 05:45:00,
2013-03-19 01:50:00,41.6,41.1,30.00,WNW,284,0.0,5.0,98,0.00,,,0.00,Wunderground v.1.15,2013-03-19 05:50:00,
2013-03-19 01:55:00,41.7,41.2,29.99,WNW,284,0.0,5.0,98,0.00,,,0.00,Wunderground v.1.15,2013-03-19 05:55:00,
2013-03-19 02:01:00,41.6,41.3,29.99,WNW,284,0.0,5.0,99,0.00,,,0.00,Wunderground v.1.15,2013-03-19 06:01:00,
2013-03-19 02:05:00,41.9,41.6,29.99,WNW,284,0.0,5.0,99,0.00,,,0.00,Wunderground v.1.15,2013-03-19 06:05:00,
2013-03-19 02:10:00,42.3,42.0,29.99,WNW,284,0.0,5.0,99,0.00,,,0.00,Wunderground v.1.15,2013-03-19 06:10:00,
2013-03-19 02:15:00,42.7,42.4,29.99,WSW,255,0.0,5.0,99,0.00,,,0.00,Wunderground v.1.15,2013-03-19 06:15:00,
2013-03-19 02:20:00,42.8,42.5,29.99,WSW,255,0.0,5.0,99,0.00,,,0.00,Wunderground v.1.15,2013-03-19 06:20:00,
2013-03-19 02:25:00,42.8,42.5,29.99,WSW,255,0.0,5.0,99,0.00,,,0.00,Wunderground v.1.15,2013-03-19 06:25:00,
2013-03-19 02:30:00,42.6,42.3,30.00,WSW,255,0.0,5.0,99,0.00,,,0.00,Wunderground v.1.15,2013-03-19 06:30:00,
2013-03-19 02:35:00,42.5,42.2,30.00,WSW,255,0.0,5.0,99,0.00,,,0.00,Wunderground v.1.15,2013-03-19 06:35:00,
2013-03-19 02:40:00,42.6,42.3,29.99,WSW,255,1.0,5.0,99,0.00,,,0.00,Wunderground v.1.15,2013-03-19 06:40:00,
2013-03-19 02:45:00,42.6,42.3,30.00,WSW,255,1.0,1.0,99,0.00,,,0.00,Wunderground v.1.15,2013-03-19 06:45:00,
2013-03-19 02:50:00,42.6,42.3,29.99,WSW,255,0.0,5.0,99,0.00,,,0.00,Wunderground v.1.15,2013-03-19 06:50:00,
2013-03-19 02:55:00,42.7,42.4,29.99,West,261,0.0,5.0,99,0.00,,,0.00,Wunderground v.1.15,2013-03-19 06:55:00,
2013-03-19 03:01:00,42.9,42.6,29.99,West,261,0.0,5.0,99,0.00,,,0.00,Wunderground v.1.15,2013-03-19 07:01:00,
2013-03-19 03:05:00,42.9,42.6,30.00,West,261,0.0,5.0,99,0.00,,,0.00,Wunderground v.1.15,2013-03-19 07:05:00,
2013-03-19 03:10:00,42.9,42.6,30.00,West,261,0.0,5.0,99,0.00,,,0.00,Wunderground v.1.15,2013-03-19 07:10:00,
2013-03-19 03:20:00,43.1,42.6,30.00,NNW,336,0.0,5.0,98,0.00,,,0.00,Wunderground v.1.15,2013-03-19 07:20:00,
2013-03-19 03:25:00,43.0,42.5,30.00,NNW,336,0.0,5.0,98,0.00,,,0.00,Wunderground v.1.15,2013-03-19 07:25:00,
2013-03-19 03:30:00,42.8,42.5,30.00,NNW,336,1.0,5.0,99,0.00,,,0.00,Wunderground v.1.15,2013-03-19 07:30:00,
2013-03-19 03:35:00,42.8,42.5,30.00,NNW,336,1.0,1.0,99,0.00,,,0.00,Wunderground v.1.15,2013-03-19 07:35:00,
2013-03-19 03:40:00,42.9,42.4,30.00,NNW,336,0.0,5.0,98,0.00,,,0.00,Wunderground v.1.15,2013-03-19 07:40:00,
2013-03-19 03:45:00,43.0,42.5,30.00,NNW,336,0.0,5.0,98,0.00,,,0.00,Wunderground v.1.15,2013-03-19 07:45:00,
2013-03-19 03:50:00,42.9,42.4,30.00,NNW,336,0.0,5.0,98,0.00,,,0.00,Wunderground v.1.15,2013-03-19 07:50:00,
2013-03-19 03:55:00,42.9,42.4,30.00,NNW,336,0.0,5.0,98,0.00,,,0.00,Wunderground v.1.15,2013-03-19 07:55:00,
2013-03-19 04:01:00,42.9,42.4,30.00,NNW,336,0.0,5.0,98,0.00,,,0.00,Wunderground v.1.15,2013-03-19 08:01:00,
2013-03-19 04:05:00,42.9,42.4,29.99,NNW,336,0.0,5.0,98,0.00,,,0.00,Wunderground v.1.15,2013-03-19 08:05:00,
2013-03-19 04:10:00,42.9,42.4,29.99,NNW,336,0.0,5.0,98,0.00,,,0.00,Wunderground v.1.15,2013-03-19 08:10:00,
2013-03-19 04:15:00,42.8,42.3,29.99,NNW,336,0.0,5.0,98,0.00,,,0.00,Wunderground v.1.15,2013-03-19 08:15:00,
2013-03-19 04:20:00,42.6,42.1,29.99,NNW,336,0.0,5.0,98,0.00,,,0.00,Wunderground v.1.15,2013-03-19 08:20:00,
2013-03-19 04:25:00,42.5,42.0,29.99,NNW,336,0.0,5.0,98,0.00,,,0.00,Wunderground v.1.15,2013-03-19 08:25:00,
2013-03-19 04:30:00,42.2,41.7,29.99,NNW,336,0.0,5.0,98,0.00,,,0.00,Wunderground v.1.15,2013-03-19 08:30:00,
2013-03-19 04:35:00,42.1,41.6,29.99,NNW,340,0.0,5.0,98,0.00,,,0.00,Wunderground v.1.15,2013-03-19 08:35:00,
2013-03-19 04:40:00,42.8,42.3,29.99,East,98,1.0,1.0,98,0.00,,,0.00,Wunderground v.1.15,2013-03-19 08:40:00,
2013-03-19 04:45:00,43.1,42.6,29.99,SSE,162,1.0,5.0,98,0.00,,,0.00,Wunderground v.1.15,2013-03-19 08:45:00,
2013-03-19 04:50:00,43.1,42.6,29.99,SSE,162,0.0,5.0,98,0.00,,,0.00,Wunderground v.1.15,2013-03-19 08:50:00,
2013-03-19 04:55:00,42.9,42.4,29.99,SSE,162,0.0,5.0,98,0.00,,,0.00,Wunderground v.1.15,2013-03-19 08:55:00,
2013-03-19 05:01:00,42.9,42.4,29.99,SSE,162,0.0,5.0,98,0.00,,,0.00,Wunderground v.1.15,2013-03-19 09:01:00,
2013-03-19 05:05:00,42.9,42.4,29.99,SSE,162,0.0,5.0,98,0.00,,,0.01,Wunderground v.1.15,2013-03-19 09:05:00,
2013-03-19 05:10:00,42.9,42.4,30.00,SW,215,0.0,5.0,98,0.00,,,0.01,Wunderground v.1.15,2013-03-19 09:10:00,
2013-03-19 05:15:00,42.7,42.2,30.00,SW,226,1.0,5.0,98,0.00,,,0.01,Wunderground v.1.15,2013-03-19 09:15:00,
2013-03-19 05:20:00,42.4,41.9,30.00,SW,226,1.0,1.0,98,0.00,,,0.01,Wunderground v.1.15,2013-03-19 09:20:00,
2013-03-19 05:30:00,42.3,41.8,30.01,SW,226,0.0,5.0,98,0.00,,,0.01,Wunderground v.1.15,2013-03-19 09:30:00,
2013-03-19 05:35:00,42.5,42.0,30.01,SW,226,0.0,5.0,98,0.00,,,0.01,Wunderground v.1.15,2013-03-19 09:35:00,
2013-03-19 05:40:00,42.5,42.0,30.02,SW,219,0.0,5.0,98,0.00,,,0.01,Wunderground v.1.15,2013-03-19 09:40:00,
2013-03-19 05:45:00,42.7,42.2,30.02,SW,219,0.0,5.0,98,0.00,,,0.01,Wunderground v.1.15,2013-03-19 09:45:00,
2013-03-19 05:50:00,43.0,42.5,30.02,South,189,1.0,5.0,98,0.00,,,0.01,Wunderground v.1.15,2013-03-19 09:50:00,
2013-03-19 05:55:00,43.1,42.6,30.02,SSE,166,2.0,5.0,98,0.00,,,0.01,Wunderground v.1.15,2013-03-19 09:55:00,
2013-03-19 06:01:00,43.2,42.7,30.03,West,278,1.0,1.0,98,0.00,,,0.01,Wunderground v.1.15,2013-03-19 10:01:00,
2013-03-19 06:05:00,43.1,42.6,30.02,South,186,1.0,2.0,98,0.00,,,0.01,Wunderground v.1.15,2013-03-19 10:05:00,
2013-03-19 06:10:00,42.9,42.4,30.02,SSE,155,2.0,5.0,98,0.00,,,0.01,Wunderground v.1.15,2013-03-19 10:10:00,
2013-03-19 06:15:00,42.6,42.1,30.03,South,181,2.0,5.0,98,0.00,,,0.01,Wunderground v.1.15,2013-03-19 10:15:00,
2013-03-19 06:20:00,42.4,41.9,30.03,South,181,2.0,5.0,98,0.00,,,0.01,Wunderground v.1.15,2013-03-19 10:20:00,
2013-03-19 06:25:00,42.2,41.7,30.04,SSE,168,3.0,5.0,98,0.00,,,0.01,Wunderground v.1.15,2013-03-19 10:25:00,
2013-03-19 06:30:00,42.0,41.5,30.04,SSW,194,3.0,6.0,98,0.00,,,0.01,Wunderground v.1.15,2013-03-19 10:30:00,
2013-03-19 06:35:00,42.0,41.5,30.05,SW,221,3.0,6.0,98,0.00,,,0.01,Wunderground v.1.15,2013-03-19 10:35:00,
2013-03-19 06:40:00,41.9,41.4,30.06,South,172,3.0,3.0,98,0.00,,,0.01,Wunderground v.1.15,2013-03-19 10:40:00,
2013-03-19 06:45:00,41.9,41.4,30.06,SSE,167,4.0,4.0,98,0.00,,,0.01,Wunderground v.1.15,2013-03-19 10:45:00,
2013-03-19 06:50:00,41.8,41.3,30.06,SSE,153,3.0,5.0,98,0.00,,,0.01,Wunderground v.1.15,2013-03-19 10:50:00,
2013-03-19 06:55:00,41.7,41.2,30.06,SSW,198,3.0,5.0,98,0.00,,,0.01,Wunderground v.1.15,2013-03-19 10:55:00,
2013-03-19 07:05:00,41.1,40.6,30.07,South,190,4.0,5.0,98,0.00,,,0.01,Wunderground v.1.15,2013-03-19 11:05:00,
2013-03-19 07:15:00,40.6,40.1,30.08,SE,134,4.0,5.0,98,0.00,,,0.01,Wunderground v.1.15,2013-03-19 11:15:00,
2013-03-19 07:20:00,40.3,39.5,30.08,SSW,199,4.0,5.0,97,0.00,,,0.01,Wunderground v.1.15,2013-03-19 11:20:00,
2013-03-19 07:25:00,39.9,38.9,30.08,South,179,4.0,5.0,96,0.00,,,0.01,Wunderground v.1.15,2013-03-19 11:25:00,
2013-03-19 07:30:00,39.5,38.2,30.08,SSW,200,4.0,5.0,95,0.00,,,0.01,Wunderground v.1.15,2013-03-19 11:30:00,
2013-03-19 07:35:00,38.9,37.0,30.08,SSW,194,4.0,8.0,93,0.00,,,0.01,Wunderground v.1.15,2013-03-19 11:35:00,
2013-03-19 07:40:00,38.3,35.9,30.09,SW,224,4.0,8.0,91,0.00,,,0.01,Wunderground v.1.15,2013-03-19 11:40:00,
2013-03-19 07:45:00,37.9,34.9,30.09,SSW,204,4.0,7.0,89,0.00,,,0.01,Wunderground v.1.15,2013-03-19 11:45:00,
2013-03-19 07:50:00,37.6,34.4,30.11,SSW,204,4.0,7.0,88,0.00,,,0.01,Wunderground v.1.15,2013-03-19 11:50:00,
2013-03-19 07:55:00,37.3,33.5,30.10,SSW,198,4.0,4.0,86,0.00,,,0.01,Wunderground v.1.15,2013-03-19 11:55:00,
2013-03-19 08:05:00,36.8,31.8,30.11,SSW,213,2.0,5.0,82,0.00,,,0.01,Wunderground v.1.15,2013-03-19 12:05:00,
2013-03-19 08:15:00,36.2,30.3,30.12,SE,124,2.0,2.0,79,0.00,,,0.01,Wunderground v.1.15,2013-03-19 12:15:00,
2013-03-19 08:20:00,35.9,30.3,30.12,SSE,148,2.0,5.0,80,0.00,,,0.01,Wunderground v.1.15,2013-03-19 12:20:00,
2013-03-19 08:25:00,35.8,30.8,30.13,SSE,150,2.0,5.0,82,0.00,,,0.01,Wunderground v.1.15,2013-03-19 12:25:00,
2013-03-19 08:35:00,35.7,30.7,30.13,South,184,1.0,1.0,82,0.00,,,0.01,Wunderground v.1.15,2013-03-19 12:35:00,
2013-03-19 08:40:00,35.6,30.9,30.13,NE,40,1.0,5.0,83,0.00,,,0.01,Wunderground v.1.15,2013-03-19 12:40:00,
2013-03-19 08:45:00,35.8,30.8,30.13,East,88,2.0,5.0,82,0.00,,,0.01,Wunderground v.1.15,2013-03-19 12:45:00,
2013-03-19 08:50:00,36.0,31.0,30.13,ENE,71,2.0,5.0,82,0.00,,,0.01,Wunderground v.1.15,2013-03-19 12:50:00,
2013-03-19 08:55:00,36.1,31.1,30.13,SSW,202,1.0,5.0,82,0.00,,,0.01,Wunderground v.1.15,2013-03-19 12:55:00,
2013-03-19 09:01:00,36.0,31.0,30.13,SE,138,1.0,5.0,82,0.00,,,0.01,Wunderground v.1.15,2013-03-19 13:01:00,
2013-03-19 09:10:00,36.1,31.1,30.13,SE,142,2.0,5.0,82,0.00,,,0.01,Wunderground v.1.15,2013-03-19 13:10:00,
2013-03-19 09:15:00,36.2,30.9,30.13,SW,222,1.0,1.0,81,0.00,,,0.01,Wunderground v.1.15,2013-03-19 13:15:00,
2013-03-19 09:20:00,36.4,31.1,30.13,SSW,194,1.0,5.0,81,0.00,,,0.01,Wunderground v.1.15,2013-03-19 13:20:00,
2013-03-19 09:25:00,36.7,31.4,30.13,SSW,194,1.0,1.0,81,0.00,,,0.01,Wunderground v.1.15,2013-03-19 13:25:00,
2013-03-19 09:30:00,36.9,31.0,30.13,SSW,194,1.0,5.0,79,0.00,,,0.01,Wunderground v.1.15,2013-03-19 13:30:00,
2013-03-19 09:35:00,37.2,30.3,30.13,SE,131,1.0,5.0,76,0.00,,,0.01,Wunderground v.1.15,2013-03-19 13:35:00,
2013-03-19 09:40:00,37.9,31.0,30.13,South,175,1.0,5.0,76,0.00,,,0.01,Wunderground v.1.15,2013-03-19 13:40:00,
2013-03-19 09:45:00,38.4,31.2,30.13,SSW,198,1.0,5.0,75,0.00,,,0.01,Wunderground v.1.15,2013-03-19 13:45:00,
2013-03-19 09:50:00,38.9,31.0,30.12,SSW,196,1.0,5.0,73,0.00,,,0.01,Wunderground v.1.15,2013-03-19 13:50:00,
2013-03-19 10:05:00,39.8,30.1,30.12,NE,55,2.0,2.0,68,0.00,,,0.01,Wunderground v.1.15,2013-03-19 14:05:00,
2013-03-19 10:10:00,40.2,30.8,30.12,WNW,300,2.0,3.0,69,0.00,,,0.01,Wunderground v.1.15,2013-03-19 14:10:00,
2013-03-19 10:15:00,40.5,30.0,30.11,East,94,2.0,5.0,66,0.00,,,0.01,Wunderground v.1.15,2013-03-19 14:15:00,
2013-03-19 10:20:00,40.7,29.8,30.11,North,11,2.0,5.0,65,0.00,,,0.01,Wunderground v.1.15,2013-03-19 14:20:00,
2013-03-19 10:25:00,41.0,30.1,30.11,NE,49,2.0,5.0,65,0.00,,,0.01,Wunderground v.1.15,2013-03-19 14:25:00,
2013-03-19 10:30:00,41.4,30.9,30.10,SE,143,2.0,5.0,66,0.00,,,0.01,Wunderground v.1.15,2013-03-19 14:30:00,
2013-03-19 10:35:00,41.6,30.7,30.11,NNW,340,2.0,2.0,65,0.00,,,0.01,Wunderground v.1.15,2013-03-19 14:35:00,
2013-03-19 10:40:00,41.9,29.8,30.11,South,182,2.0,5.0,62,0.00,,,0.01,Wunderground v.1.15,2013-03-19 14:40:00,
2013-03-19 10:45:00,42.2,30.5,30.11,NE,40,2.0,5.0,63,0.00,,,0.01,Wunderground v.1.15,2013-03-19 14:45:00,
2013-03-19 10:50:00,42.6,30.5,30.11,ENE,63,2.0,5.0,62,0.00,,,0.01,Wunderground v.1.15,2013-03-19 14:50:00,
2013-03-19 10:55:00,43.0,30.9,30.11,SE,132,2.0,5.0,62,0.00,,,0.01,Wunderground v.1.15,2013-03-19 14:55:00,
2013-03-19 11:01:00,43.4,30.8,30.11,South,182,2.0,2.0,61,0.00,,,0.01,Wunderground v.1.15,2013-03-19 15:01:00,
2013-03-19 11:05:00,43.7,30.7,30.11,South,189,2.0,4.0,60,0.00,,,0.01,Wunderground v.1.15,2013-03-19 15:05:00,
2013-03-19 11:10:00,44.4,30.5,30.11,South,171,1.0,5.0,58,0.00,,,0.01,Wunderground v.1.15,2013-03-19 15:10:00,
2013-03-19 11:15:00,44.4,31.0,30.11,SSE,160,2.0,5.0,59,0.00,,,0.01,Wunderground v.1.15,2013-03-19 15:15:00,
2013-03-19 11:20:00,44.5,30.6,30.11,West,273,3.0,5.0,58,0.00,,,0.01,Wunderground v.1.15,2013-03-19 15:20:00,
2013-03-19 11:25:00,44.9,31.0,30.11,SW,221,2.0,5.0,58,0.00,,,0.01,Wunderground v.1.15,2013-03-19 15:25:00,
2013-03-19 11:30:00,45.3,30.5,30.11,SSE,157,2.0,5.0,56,0.00,,,0.01,Wunderground v.1.15,2013-03-19 15:30:00,
2013-03-19 11:35:00,45.6,29.9,30.11,SSW,194,2.0,5.0,54,0.00,,,0.01,Wunderground v.1.15,2013-03-19 15:35:00,
2013-03-19 11:40:00,45.6,30.8,30.12,SSW,201,2.0,5.0,56,0.00,,,0.01,Wunderground v.1.15,2013-03-19 15:40:00,
2013-03-19 11:45:00,45.8,29.6,30.12,ENE,78,3.0,5.0,53,0.00,,,0.01,Wunderground v.1.15,2013-03-19 15:45:00,
2013-03-19 11:50:00,45.9,29.2,30.12,South,177,3.0,5.0,52,0.00,,,0.01,Wunderground v.1.15,2013-03-19 15:50:00,
2013-03-19 11:55:00,46.2,30.0,30.12,SSE,166,3.0,5.0,53,0.00,,,0.01,Wunderground v.1.15,2013-03-19 15:55:00,
2013-03-19 12:01:00,46.7,30.0,30.12,ESE,117,4.0,5.0,52,0.00,,,0.01,Wunderground v.1.15,2013-03-19 16:01:00,
2013-03-19 12:10:00,47.6,29.4,30.11,NNW,346,3.0,5.0,49,0.00,,,0.01,Wunderground v.1.15,2013-03-19 16:10:00,
2013-03-19 12:15:00,48.2,27.8,30.11,SSW,202,3.0,6.0,45,0.00,,,0.01,Wunderground v.1.15,2013-03-19 16:15:00,
2013-03-19 12:20:00,48.5,26.4,30.12,SW,218,3.0,3.0,42,0.00,,,0.01,Wunderground v.1.15,2013-03-19 16:20:00,
2013-03-19 12:25:00,48.4,25.8,30.12,NE,48,4.0,4.0,41,0.00,,,0.01,Wunderground v.1.15,2013-03-19 16:25:00,
2013-03-19 12:30:00,48.7,28.3,30.12,SSW,202,4.0,7.0,45,0.00,,,0.01,Wunderground v.1.15,2013-03-19 16:30:00,
2013-03-19 12:35:00,49.1,27.5,30.12,South,180,5.0,7.0,43,0.00,,,0.01,Wunderground v.1.15,2013-03-19 16:35:00,
2013-03-19 12:40:00,49.4,27.2,30.12,SSE,158,4.0,4.0,42,0.00,,,0.01,Wunderground v.1.15,2013-03-19 16:40:00,
2013-03-19 12:45:00,49.5,26.7,30.12,SW,219,4.0,5.0,41,0.00,,,0.01,Wunderground v.1.15,2013-03-19 16:45:00,
2013-03-19 12:50:00,49.7,25.1,30.11,SSW,200,5.0,5.0,38,0.00,,,0.01,Wunderground v.1.15,2013-03-19 16:50:00,
2013-03-19 12:55:00,50.0,23.4,30.12,SSW,202,5.0,7.0,35,0.00,,,0.01,Wunderground v.1.15,2013-03-19 16:55:00,
2013-03-19 13:05:00,50.8,24.8,30.12,SSE,163,4.0,4.0,36,0.00,,,0.01,Wunderground v.1.15,2013-03-19 17:05:00,
2013-03-19 13:10:00,51.5,24.0,30.12,WSW,247,4.0,5.0,34,0.00,,,0.01,Wunderground v.1.15,2013-03-19 17:10:00,
2013-03-19 13:15:00,51.6,23.4,30.12,SSE,149,3.0,3.0,33,0.00,,,0.01,Wunderground v.1.15,2013-03-19 17:15:00,
2013-03-19 13:20:00,51.3,23.1,30.11,South,175,4.0,4.0,33,0.00,,,0.01,Wunderground v.1.15,2013-03-19 17:20:00,
2013-03-19 13:25:00,51.2,23.0,30.11,WSW,239,3.0,3.0,33,0.00,,,0.01,Wunderground v.1.15,2013-03-19 17:25:00,
2013-03-19 13:30:00,51.6,25.5,30.11,SW,226,3.0,5.0,36,0.00,,,0.01,Wunderground v.1.15,2013-03-19 17:30:00,
2013-03-19 13:35:00,51.8,25.0,30.11,SSE,157,3.0,3.0,35,0.00,,,0.01,Wunderground v.1.15,2013-03-19 17:35:00,
2013-03-19 13:40:00,51.8,22.8,30.11,South,171,3.0,5.0,32,0.00,,,0.01,Wunderground v.1.15,2013-03-19 17:40:00,
2013-03-19 13:45:00,52.1,22.3,30.11,South,178,3.0,3.0,31,0.00,,,0.01,Wunderground v.1.15,2013-03-19 17:45:00,
2013-03-19 13:50:00,52.9,24.5,30.11,South,178,3.0,5.0,33,0.00,,,0.01,Wunderground v.1.15,2013-03-19 17:50:00,
2013-03-19 13:55:00,53.3,22.6,30.11,SW,217,3.0,6.0,30,0.00,,,0.01,Wunderground v.1.15,2013-03-19 17:55:00,
2013-03-19 14:01:00,53.3,23.4,30.11,ESE,112,4.0,5.0,31,0.00,,,0.01,Wunderground v.1.15,2013-03-19 18:01:00,
2013-03-19 14:05:00,53.2,22.5,30.11,SW,224,4.0,5.0,30,0.00,,,0.01,Wunderground v.1.15,2013-03-19 18:05:00,
2013-03-19 14:10:00,53.5,25.8,30.11,South,191,3.0,5.0,34,0.00,,,0.01,Wunderground v.1.15,2013-03-19 18:10:00,
2013-03-19 14:15:00,53.7,25.2,30.11,SSW,200,3.0,5.0,33,0.00,,,0.01,Wunderground v.1.15,2013-03-19 18:15:00,
2013-03-19 14:20:00,53.6,25.9,30.11,SSE,165,4.0,5.0,34,0.00,,,0.01,Wunderground v.1.15,2013-03-19 18:20:00,
2013-03-19 14:25:00,53.7,26.0,30.10,SSE,158,3.0,5.0,34,0.00,,,0.01,Wunderground v.1.15,2013-03-19 18:25:00,
2013-03-19 14:35:00,54.5,27.4,30.10,South,182,2.0,5.0,35,0.00,,,0.01,Wunderground v.1.15,2013-03-19 18:35:00,
2013-03-19 14:40:00,54.3,26.5,30.10,SSW,210,3.0,5.0,34,0.00,,,0.01,Wunderground v.1.15,2013-03-19 18:40:00,
2013-03-19 14:45:00,54.1,26.3,30.10,ENE,70,3.0,3.0,34,0.00,,,0.01,Wunderground v.1.15,2013-03-19 18:45:00,
2013-03-19 14:50:00,54.6,26.8,30.09,NNW,337,3.0,5.0,34,0.00,,,0.01,Wunderground v.1.15,2013-03-19 18:50:00,
2013-03-19 14:55:00,54.5,26.7,30.09,SSW,200,3.0,7.0,34,0.00,,,0.01,Wunderground v.1.15,2013-03-19 18:55:00,
2013-03-19 15:01:00,54.5,25.2,30.09,South,180,3.0,5.0,32,0.00,,,0.01,Wunderground v.1.15,2013-03-19 19:01:00,
2013-03-19 15:05:00,54.3,25.8,30.09,West,272,4.0,5.0,33,0.00,,,0.01,Wunderground v.1.15,2013-03-19 19:05:00,
2013-03-19 15:10:00,54.4,26.6,30.09,ESE,112,4.0,4.0,34,0.00,,,0.01,Wunderground v.1.15,2013-03-19 19:10:00,
2013-03-19 15:15:00,54.3,26.5,30.09,SW,222,3.0,5.0,34,0.00,,,0.01,Wunderground v.1.15,2013-03-19 19:15:00,
2013-03-19 15:20:00,55.1,25.7,30.09,SW,220,3.0,3.0,32,0.00,,,0.01,Wunderground v.1.15,2013-03-19 19:20:00,
2013-03-19 15:25:00,55.4,25.2,30.09,SE,138,3.0,4.0,31,0.00,,,0.01,Wunderground v.1.15,2013-03-19 19:25:00,
2013-03-19 15:30:00,55.2,23.5,30.08,South,190,3.0,5.0,29,0.00,,,0.01,Wunderground v.1.15,2013-03-19 19:30:00,
2013-03-19 15:35:00,55.7,22.2,30.08,ESE,120,4.0,8.0,27,0.00,,,0.01,Wunderground v.1.15,2013-03-19 19:35:00,
2013-03-19 15:40:00,55.9,21.5,30.09,SE,129,4.0,4.0,26,0.00,,,0.01,Wunderground v.1.15,2013-03-19 19:40:00,
2013-03-19 15:45:00,55.9,20.5,30.09,South,186,5.0,5.0,25,0.00,,,0.01,Wunderground v.1.15,2013-03-19 19:45:00,
2013-03-19 15:50:00,55.9,21.5,30.09,South,187,6.0,8.0,26,0.00,,,0.01,Wunderground v.1.15,2013-03-19 19:50:00,
2013-03-19 15:55:00,55.5,21.1,30.09,South,174,7.0,8.0,26,0.00,,,0.01,Wunderground v.1.15,2013-03-19 19:55:00,
2013-03-19 16:05:00,56.0,25.0,30.09,South,184,6.0,7.0,30,0.00,,,0.01,Wunderground v.1.15,2013-03-19 20:05:00,
2013-03-19 16:10:00,55.8,22.3,30.09,SSW,203,6.0,7.0,27,0.00,,,0.01,Wunderground v.1.15,2013-03-19 20:10:00,
2013-03-19 16:15:00,55.8,23.1,30.09,SSW,205,6.0,12.0,28,0.00,,,0.01,Wunderground v.1.15,2013-03-19 20:15:00,
2013-03-19 16:20:00,55.4,22.8,30.09,SSW,209,6.0,12.0,28,0.00,,,0.01,Wunderground v.1.15,2013-03-19 20:20:00,
2013-03-19 16:25:00,55.3,21.8,30.09,SSW,206,6.0,7.0,27,0.00,,,0.01,Wunderground v.1.15,2013-03-19 20:25:00,
2013-03-19 16:30:00,54.9,20.6,30.09,South,172,7.0,7.0,26,0.00,,,0.01,Wunderground v.1.15,2013-03-19 20:30:00,
2013-03-19 16:35:00,55.2,22.6,30.09,SSW,194,6.0,6.0,28,0.00,,,0.01,Wunderground v.1.15,2013-03-19 20:35:00,
2013-03-19 16:40:00,55.5,22.0,30.10,South,186,6.0,12.0,27,0.00,,,0.01,Wunderground v.1.15,2013-03-19 20:40:00,
2013-03-19 16:45:00,55.4,21.9,30.10,SSW,201,7.0,7.0,27,0.00,,,0.01,Wunderground v.1.15,2013-03-19 20:45:00,
2013-03-19 16:50:00,55.1,22.5,30.09,SSW,212,7.0,7.0,28,0.00,,,0.01,Wunderground v.1.15,2013-03-19 20:50:00,
2013-03-19 16:55:00,54.8,21.4,30.10,SSW,200,6.0,6.0,27,0.00,,,0.01,Wunderground v.1.15,2013-03-19 20:55:00,
2013-03-19 17:05:00,54.7,20.4,30.10,South,171,6.0,6.0,26,0.00,,,0.01,Wunderground v.1.15,2013-03-19 21:05:00,
2013-03-19 17:10:00,54.5,19.3,30.10,SSW,202,5.0,10.0,25,0.00,,,0.01,Wunderground v.1.15,2013-03-19 21:10:00,
2013-03-19 17:15:00,54.2,19.1,30.10,SSW,209,6.0,7.0,25,0.00,,,0.01,Wunderground v.1.15,2013-03-19 21:15:00,
2013-03-19 17:20:00,54.7,21.3,30.10,South,174,6.0,7.0,27,0.00,,,0.01,Wunderground v.1.15,2013-03-19 21:20:00,
2013-03-19 17:25:00,54.5,19.3,30.10,SSW,209,5.0,5.0,25,0.00,,,0.01,Wunderground v.1.15,2013-03-19 21:25:00,
2013-03-19 17:30:00,54.4,18.3,30.10,SSW,201,5.0,5.0,24,0.00,,,0.01,Wunderground v.1.15,2013-03-19 21:30:00,
2013-03-19 17:35:00,53.9,18.8,30.11,East,94,5.0,5.0,25,0.00,,,0.01,Wunderground v.1.15,2013-03-19 21:35:00,
2013-03-19 17:40:00,53.7,20.5,30.10,South,176,5.0,5.0,27,0.00,,,0.01,Wunderground v.1.15,2013-03-19 21:40:00,
2013-03-19 17:45:00,53.7,19.6,30.10,South,173,5.0,6.0,26,0.00,,,0.01,Wunderground v.1.15,2013-03-19 21:45:00,
2013-03-19 17:55:00,53.6,19.5,30.10,South,172,6.0,6.0,26,0.00,,,0.01,Wunderground v.1.15,2013-03-19 21:55:00,
2013-03-19 18:00:00,53.7,20.5,30.11,SW,221,5.0,5.0,27,0.00,,,0.01,Wunderground v.1.15,2013-03-19 22:00:00,
2013-03-19 18:05:00,53.5,20.3,30.11,SSW,198,5.0,5.0,27,0.00,,,0.01,Wunderground v.1.15,2013-03-19 22:05:00,
2013-03-19 18:10:00,53.4,21.1,30.11,SSE,149,5.0,5.0,28,0.00,,,0.01,Wunderground v.1.15,2013-03-19 22:10:00,
2013-03-19 18:15:00,53.0,21.6,30.11,SSW,207,5.0,5.0,29,0.00,,,0.01,Wunderground v.1.15,2013-03-19 22:15:00,
2013-03-19 18:20:00,52.8,21.4,30.11,SSW,200,4.0,4.0,29,0.00,,,0.01,Wunderground v.1.15,2013-03-19 22:20:00,
2013-03-19 18:25:00,52.9,23.0,30.11,South,180,3.0,5.0,31,0.00,,,0.01,Wunderground v.1.15,2013-03-19 22:25:00,
2013-03-19 18:30:00,52.8,22.2,30.11,SSE,162,3.0,5.0,30,0.00,,,0.01,Wunderground v.1.15,2013-03-19 22:30:00,
2013-03-19 18:35:00,52.4,21.8,30.11,SSW,194,4.0,5.0,30,0.00,,,0.01,Wunderground v.1.15,2013-03-19 22:35:00,
2013-03-19 18:40:00,52.1,22.3,30.11,South,185,4.0,4.0,31,0.00,,,0.01,Wunderground v.1.15,2013-03-19 22:40:00,
2013-03-19 18:45:00,52.0,23.0,30.11,SSW,205,4.0,5.0,32,0.00,,,0.01,Wunderground v.1.15,2013-03-19 22:45:00,
2013-03-19 18:50:00,51.8,22.8,30.11,SSW,211,3.0,5.0,32,0.00,,,0.01,Wunderground v.1.15,2013-03-19 22:50:00,
2013-03-19 18:55:00,51.6,23.4,30.11,SSE,161,3.0,5.0,33,0.00,,,0.01,Wunderground v.1.15,2013-03-19 22:55:00,
2013-03-19 19:05:00,51.1,23.0,30.12,SSE,162,3.0,5.0,33,0.00,,,0.01,Wunderground v.1.15,2013-03-19 23:05:00,
2013-03-19 19:10:00,50.9,24.2,30.12,South,188,3.0,5.0,35,0.00,,,0.01,Wunderground v.1.15,2013-03-19 23:10:00,
2013-03-19 19:15:00,50.5,23.8,30.12,SSW,200,3.0,5.0,35,0.00,,,0.01,Wunderground v.1.15,2013-03-19 23:15:00,
2013-03-19 19:20:00,50.0,22.7,30.12,ESE,121,3.0,5.0,34,0.00,,,0.01,Wunderground v.1.15,2013-03-19 23:20:00,
2013-03-19 19:30:00,48.8,22.3,30.12,SSW,192,3.0,6.0,35,0.00,,,0.01,Wunderground v.1.15,2013-03-19 23:30:00,
2013-03-19 19:35:00,48.3,21.9,30.13,SSE,159,3.0,3.0,35,0.00,,,0.01,Wunderground v.1.15,2013-03-19 23:35:00,
2013-03-19 19:40:00,47.8,21.4,30.13,SSW,198,3.0,5.0,35,0.00,,,0.01,Wunderground v.1.15,2013-03-19 23:40:00,
2013-03-19 19:45:00,47.6,22.6,30.14,SSW,206,2.0,2.0,37,0.00,,,0.01,Wunderground v.1.15,2013-03-19 23:45:00,
2013-03-19 19:50:00,47.3,22.3,30.14,SSW,204,2.0,5.0,37,0.00,,,0.01,Wunderground v.1.15,2013-03-19 23:50:00,
2013-03-19 19:55:00,47.0,23.3,30.14,SSW,196,2.0,2.0,39,0.00,,,0.01,Wunderground v.1.15,2013-03-19 23:55:00,
2013-03-19 20:05:00,46.3,21.4,30.14,South,175,1.0,1.0,37,0.00,,,0.01,Wunderground v.1.15,2013-03-20 00:05:00,
2013-03-19 20:10:00,46.0,24.2,30.14,South,186,1.0,5.0,42,0.00,,,0.01,Wunderground v.1.15,2013-03-20 00:10:00,
2013-03-19 20:15:00,45.6,22.6,30.15,South,187,1.0,1.0,40,0.00,,,0.01,Wunderground v.1.15,2013-03-20 00:15:00,
2013-03-19 20:20:00,45.2,23.4,30.14,South,187,1.0,5.0,42,0.00,,,0.01,Wunderground v.1.15,2013-03-20 00:20:00,
2013-03-19 20:25:00,45.0,22.7,30.15,ENE,69,0.0,5.0,41,0.00,,,0.01,Wunderground v.1.15,2013-03-20 00:25:00,
2013-03-19 20:30:00,44.8,20.7,30.14,SSE,150,1.0,5.0,38,0.00,,,0.01,Wunderground v.1.15,2013-03-20 00:30:00,
2013-03-19 20:35:00,44.7,20.0,30.15,SSW,192,1.0,1.0,37,0.00,,,0.01,Wunderground v.1.15,2013-03-20 00:35:00,
2013-03-19 20:40:00,44.6,21.7,30.15,SSW,192,1.0,5.0,40,0.00,,,0.01,Wunderground v.1.15,2013-03-20 00:40:00,
2013-03-19 20:45:00,44.3,22.1,30.15,SSW,192,0.0,5.0,41,0.00,,,0.01,Wunderground v.1.15,2013-03-20 00:45:00,
2013-03-19 20:55:00,43.8,20.4,30.15,SSW,192,0.0,5.0,39,0.00,,,0.01,Wunderground v.1.15,2013-03-20 00:55:00,
2013-03-19 21:00:00,43.7,19.1,30.16,ESE,103,1.0,1.0,37,0.00,,,0.01,Wunderground v.1.15,2013-03-20 01:00:00,
2013-03-19 21:05:00,43.5,19.5,30.16,ESE,109,1.0,5.0,38,0.00,,,0.01,Wunderground v.1.15,2013-03-20 01:05:00,
2013-03-19 21:10:00,43.3,20.0,30.16,ESE,109,1.0,1.0,39,0.00,,,0.01,Wunderground v.1.15,2013-03-20 01:10:00,
2013-03-19 21:20:00,43.2,18.0,30.16,ESE,107,1.0,5.0,36,0.00,,,0.01,Wunderground v.1.15,2013-03-20 01:20:00,
2013-03-19 21:25:00,43.0,17.8,30.16,ENE,61,0.0,5.0,36,0.00,,,0.01,Wunderground v.1.15,2013-03-20 01:25:00,
2013-03-19 21:30:00,42.7,17.6,30.16,ENE,74,1.0,5.0,36,0.00,,,0.01,Wunderground v.1.15,2013-03-20 01:30:00,
2013-03-19 21:35:00,42.4,17.9,30.16,ENE,66,1.0,5.0,37,0.00,,,0.01,Wunderground v.1.15,2013-03-20 01:35:00,
2013-03-19 21:40:00,42.2,17.1,30.17,East,82,1.0,1.0,36,0.00,,,0.01,Wunderground v.1.15,2013-03-20 01:40:00,
2013-03-19 21:45:00,41.9,16.9,30.17,East,97,1.0,5.0,36,0.00,,,0.01,Wunderground v.1.15,2013-03-20 01:45:00,
2013-03-19 21:50:00,41.7,16.7,30.17,SE,127,1.0,5.0,36,0.00,,,0.01,Wunderground v.1.15,2013-03-20 01:50:00,
2013-03-19 21:55:00,41.4,18.3,30.17,SE,127,1.0,5.0,39,0.00,,,0.01,Wunderground v.1.15,2013-03-20 01:55:00,
2013-03-19 22:01:00,41.2,18.7,30.17,SE,125,1.0,5.0,40,0.00,,,0.01,Wunderground v.1.15,2013-03-20 02:01:00,
2013-03-19 22:05:00,40.9,16.6,30.17,SSE,163,1.0,5.0,37,0.00,,,0.01,Wunderground v.1.15,2013-03-20 02:05:00,
2013-03-19 22:10:00,40.9,16.0,30.17,SSE,165,1.0,1.0,36,0.00,,,0.01,Wunderground v.1.15,2013-03-20 02:10:00,
2013-03-19 22:15:00,40.7,18.8,30.17,SSE,165,1.0,5.0,41,0.00,,,0.01,Wunderground v.1.15,2013-03-20 02:15:00,
2013-03-19 22:25:00,40.1,19.4,30.17,SSE,153,0.0,5.0,43,0.00,,,0.01,Wunderground v.1.15,2013-03-20 02:25:00,
2013-03-19 22:30:00,39.9,19.7,30.17,SSE,153,0.0,5.0,44,0.00,,,0.01,Wunderground v.1.15,2013-03-20 02:30:00,
2013-03-19 22:35:00,39.6,20.5,30.17,SSE,153,0.0,5.0,46,0.00,,,0.01,Wunderground v.1.15,2013-03-20 02:35:00,
2013-03-19 22:40:00,39.3,19.7,30.17,SSE,153,0.0,5.0,45,0.00,,,0.01,Wunderground v.1.15,2013-03-20 02:40:00,
2013-03-19 22:45:00,39.1,16.8,30.17,SSE,153,0.0,5.0,40,0.00,,,0.01,Wunderground v.1.15,2013-03-20 02:45:00,
2013-03-19 22:50:00,38.9,18.3,30.16,SSE,153,0.0,5.0,43,0.00,,,0.01,Wunderground v.1.15,2013-03-20 02:50:00,
2013-03-19 22:55:00,38.7,19.7,30.16,SSE,153,0.0,5.0,46,0.00,,,0.01,Wunderground v.1.15,2013-03-20 02:55:00,
2013-03-19 23:00:00,38.3,20.3,30.16,SSE,153,0.0,5.0,48,0.00,,,0.01,Wunderground v.1.15,2013-03-20 03:00:00,
2013-03-19 23:05:00,38.0,19.5,30.17,SSE,153,0.0,5.0,47,0.00,,,0.01,Wunderground v.1.15,2013-03-20 03:05:00,
2013-03-19 23:10:00,37.7,21.6,30.17,South,188,0.0,5.0,52,0.00,,,0.01,Wunderground v.1.15,2013-03-20 03:10:00,
2013-03-19 23:15:00,37.4,20.4,30.17,South,188,0.0,5.0,50,0.00,,,0.01,Wunderground v.1.15,2013-03-20 03:15:00,
2013-03-19 23:20:00,37.1,19.2,30.17,South,188,0.0,5.0,48,0.00,,,0.01,Wunderground v.1.15,2013-03-20 03:20:00,
2013-03-19 23:25:00,37.1,18.2,30.17,South,188,0.0,5.0,46,0.00,,,0.01,Wunderground v.1.15,2013-03-20 03:25:00,
2013-03-19 23:30:00,37.1,18.2,30.17,South,188,0.0,5.0,46,0.00,,,0.01,Wunderground v.1.15,2013-03-20 03:30:00,
2013-03-19 23:35:00,37.2,16.7,30.17,South,188,0.0,5.0,43,0.00,,,0.01,Wunderground v.1.15,2013-03-20 03:35:00,
2013-03-19 23:40:00,37.3,16.3,30.17,South,188,0.0,5.0,42,0.00,,,0.01,Wunderground v.1.15,2013-03-20 03:40:00,
2013-03-19 23:45:00,37.4,15.8,30.17,South,188,0.0,5.0,41,0.00,,,0.01,Wunderground v.1.15,2013-03-20 03:45:00,
2013-03-19 23:50:00,37.4,14.7,30.18,South,188,0.0,5.0,39,0.00,,,0.01,Wunderground v.1.15,2013-03-20 03:50:00,
2013-03-19 23:55:00,37.4,16.9,30.18,South,188,0.0,5.0,43,0.00,,,0.01,Wunderground v.1.15,2013-03-20 03:55:00,